Time,TemperatureF,DewpointF,PressureIn,WindDirection,WindDirectionDegrees,WindSpeedMPH,WindSpeedGustMPH,Humidity,HourlyPrecipIn,Conditions,Clouds,dailyrainin,SoftwareType,DateUTC
2013-11-02 00:42:00,40.0,28.0,29.97,NW,304,5.0,11.0,62,0.00,,,0.01,,2013-11-02 05:42:00,
2013-11-02 02:42:00,34.0,25.0,30.00,WSW,248,3.0,8.0,70,0.00,,,0.01,,2013-11-02 07:42:00,
2013-11-02 03:22:00,34.0,26.0,30.01,WSW,245,4.0,6.0,71,0.00,,,0.01,,2013-11-02 08:22:00,
2013-11-02 03:42:00,34.0,25.0,30.01,WSW,242,4.0,7.0,70,0.00,,,0.01,,2013-11-02 08:42:00,
2013-11-02 03:52:00,34.0,25.0,30.01,WSW,242,4.0,6.0,69,0.00,,,0.01,,2013-11-02 08:52:00,
2013-11-02 04:11:00,34.0,25.0,30.00,WSW,251,3.0,5.0,69,0.00,,,0.01,,2013-11-02 09:11:00,
2013-11-02 04:21:00,33.0,24.0,30.01,WSW,255,3.0,6.0,69,0.00,,,0.01,,2013-11-02 09:21:00,
2013-11-02 04:43:00,34.0,25.0,30.01,WSW,257,5.0,8.0,70,0.00,,,0.01,,2013-11-02 09:43:00,
2013-11-02 04:53:00,34.0,25.0,30.01,WSW,257,4.0,10.0,69,0.00,,,0.01,,2013-11-02 09:53:00,
2013-11-02 05:13:00,34.0,25.0,30.01,West,261,4.0,8.0,68,0.00,,,0.01,,2013-11-02 10:13:00,
2013-11-02 05:23:00,34.0,25.0,30.02,WSW,246,4.0,7.0,68,0.00,,,0.01,,2013-11-02 10:23:00,
2013-11-02 05:52:00,33.0,24.0,30.03,WSW,244,4.0,7.0,69,0.00,,,0.01,,2013-11-02 10:52:00,
2013-11-02 06:12:00,33.0,24.0,30.03,WSW,254,3.0,7.0,69,0.00,,,0.01,,2013-11-02 11:12:00,
2013-11-02 06:22:00,33.0,24.0,30.03,WSW,253,3.0,7.0,68,0.00,,,0.01,,2013-11-02 11:22:00,
2013-11-02 06:42:00,33.0,24.0,30.04,WSW,251,4.0,5.0,68,0.00,,,0.01,,2013-11-02 11:42:00,
2013-11-02 06:52:00,33.0,24.0,30.05,West,263,3.0,6.0,68,0.00,,,0.01,,2013-11-02 11:52:00,
2013-11-02 07:21:00,33.0,23.0,30.05,West,270,2.0,4.0,67,0.00,,,0.01,,2013-11-02 12:21:00,
2013-11-02 07:42:00,33.0,24.0,30.05,WSW,250,4.0,7.0,69,0.00,,,0.01,,2013-11-02 12:42:00,
2013-11-02 07:52:00,33.0,24.0,30.05,WSW,248,3.0,7.0,68,0.00,,,0.01,,2013-11-02 12:52:00,
2013-11-02 08:12:00,33.0,24.0,30.05,WSW,247,3.0,5.0,68,0.00,,,0.01,,2013-11-02 13:12:00,
2013-11-02 08:22:00,32.0,23.0,30.05,WSW,247,3.0,4.0,69,0.00,,,0.01,,2013-11-02 13:22:00,
2013-11-02 08:42:00,33.0,24.0,30.05,WSW,246,3.0,5.0,69,0.00,,,0.01,,2013-11-02 13:42:00,
2013-11-02 08:52:00,32.0,23.0,30.05,WSW,246,3.0,4.0,69,0.00,,,0.01,,2013-11-02 13:52:00,
2013-11-02 09:11:00,33.0,24.0,30.06,WSW,247,3.0,6.0,69,0.00,,,0.01,,2013-11-02 14:11:00,
2013-11-02 09:21:00,34.0,24.0,30.06,WSW,249,3.0,6.0,67,0.00,,,0.01,,2013-11-02 14:21:00,
2013-11-02 09:42:00,35.0,24.0,30.07,WSW,244,3.0,8.0,65,0.00,,,0.01,,2013-11-02 14:42:00,
2013-11-02 09:52:00,35.0,24.0,30.07,WSW,248,2.0,5.0,65,0.00,,,0.01,,2013-11-02 14:52:00,
2013-11-02 10:11:00,36.0,25.0,30.08,WSW,254,4.0,8.0,65,0.00,,,0.01,,2013-11-02 15:11:00,
2013-11-02 10:22:00,37.0,26.0,30.08,West,263,2.0,5.0,64,0.00,,,0.01,,2013-11-02 15:22:00,
2013-11-02 10:43:00,38.0,25.0,30.08,WSW,247,5.0,9.0,60,0.00,,,0.01,,2013-11-02 15:43:00,
2013-11-02 10:53:00,39.0,26.0,30.08,WSW,250,4.0,7.0,59,0.00,,,0.01,,2013-11-02 15:53:00,
2013-11-02 11:23:00,41.0,27.0,30.08,WSW,239,3.0,7.0,56,0.00,,,0.01,,2013-11-02 16:23:00,
2013-11-02 11:42:00,42.0,26.0,30.08,WNW,299,4.0,8.0,53,0.00,,,0.01,,2013-11-02 16:42:00,
2013-11-02 11:54:00,43.0,27.0,30.08,West,259,3.0,6.0,52,0.00,,,0.01,,2013-11-02 16:54:00,
2013-11-02 14:42:00,50.0,34.0,30.06,WSW,240,4.0,9.0,53,0.00,,,0.01,,2013-11-02 19:42:00,
2013-11-02 14:52:00,50.0,35.0,30.06,West,267,5.0,11.0,56,0.00,,,0.01,,2013-11-02 19:52:00,
2013-11-02 15:12:00,50.0,35.0,30.06,WNW,285,4.0,9.0,56,0.00,,,0.01,,2013-11-02 20:12:00,
2013-11-02 15:22:00,51.0,36.0,30.06,West,265,3.0,6.0,56,0.00,,,0.01,,2013-11-02 20:22:00,
2013-11-02 15:43:00,51.0,35.0,30.06,WSW,243,2.0,8.0,55,0.00,,,0.01,,2013-11-02 20:43:00,
2013-11-02 15:53:00,51.0,34.0,30.05,WSW,256,4.0,7.0,53,0.00,,,0.01,,2013-11-02 20:53:00,
2013-11-02 16:12:00,51.0,34.0,30.05,WSW,257,4.0,7.0,53,0.00,,,0.01,,2013-11-02 21:12:00,
2013-11-02 16:22:00,52.0,35.0,30.05,WSW,248,2.0,9.0,52,0.00,,,0.01,,2013-11-02 21:22:00,
2013-11-02 16:44:00,52.0,35.0,30.04,WSW,238,5.0,10.0,52,0.00,,,0.01,,2013-11-02 21:44:00,
2013-11-02 16:54:00,52.0,34.0,30.04,WSW,246,1.0,7.0,51,0.00,,,0.01,,2013-11-02 21:54:00,
2013-11-02 17:24:00,51.0,33.0,30.03,West,265,2.0,5.0,50,0.00,,,0.01,,2013-11-02 22:24:00,
2013-11-02 17:44:00,51.0,33.0,30.03,West,278,0.0,3.0,49,0.00,,,0.01,,2013-11-02 22:44:00,
2013-11-02 17:54:00,51.0,33.0,30.03,West,278,0.0,2.0,50,0.00,,,0.01,,2013-11-02 22:54:00,
2013-11-02 18:12:00,51.0,33.0,30.03,West,278,0.0,2.0,50,0.00,,,0.01,,2013-11-02 23:12:00,
2013-11-02 18:22:00,50.0,33.0,30.03,West,278,0.0,1.0,52,0.00,,,0.01,,2013-11-02 23:22:00,
2013-11-02 18:42:00,49.0,33.0,30.03,West,278,0.0,0.0,54,0.00,,,0.01,,2013-11-02 23:42:00,
2013-11-02 18:52:00,48.0,32.0,30.03,West,278,0.0,0.0,54,0.00,,,0.00,,2013-11-02 23:52:00,
2013-11-02 19:11:00,47.0,32.0,30.03,West,278,0.0,0.0,56,0.00,,,0.00,,2013-11-03 00:11:00,
2013-11-02 19:22:00,46.0,32.0,30.03,West,278,0.0,3.0,58,0.00,,,0.00,,2013-11-03 00:22:00,
2013-11-02 20:11:00,42.0,26.0,30.03,SSE,153,0.0,3.0,53,0.00,,,0.00,,2013-11-03 01:11:00,
2013-11-02 20:21:00,42.0,28.0,30.03,SSE,161,2.0,5.0,57,0.00,,,0.00,,2013-11-03 01:21:00,
2013-11-02 20:42:00,42.0,27.0,30.03,SSE,167,2.0,4.0,54,0.00,,,0.00,,2013-11-03 01:42:00,
2013-11-02 20:52:00,42.0,26.0,30.03,South,169,0.0,4.0,53,0.00,,,0.00,,2013-11-03 01:52:00,
2013-11-02 21:52:00,38.0,25.0,30.02,SSE,167,2.0,4.0,60,0.00,,,0.00,,2013-11-03 02:52:00,
2013-11-02 22:11:00,38.0,25.0,30.02,South,173,0.0,4.0,60,0.00,,,0.00,,2013-11-03 03:11:00,
2013-11-02 22:54:00,37.0,26.0,30.01,SSE,167,1.0,5.0,64,0.00,,,0.00,,2013-11-03 03:54:00,
2013-11-02 23:02:00,-999.0,-99.9,30.01,SE,139,3.0,5.0,-999,-99.99,,,-99.99,,2013-11-03 04:02:00,
2013-11-02 23:13:00,37.0,26.0,30.01,SE,139,3.0,5.0,63,0.00,,,0.00,,2013-11-03 04:13:00,
2013-11-02 23:23:00,37.0,26.0,30.01,SE,130,3.0,6.0,64,0.00,,,0.00,,2013-11-03 04:23:00,
2013-11-02 23:44:00,38.0,26.0,30.01,SE,138,3.0,7.0,62,0.00,,,0.00,,2013-11-03 04:44:00,
2013-11-02 23:52:00,37.0,26.0,30.01,SE,144,3.0,6.0,63,0.00,,,0.00,,2013-11-03 04:52:00,